www.pogodaiklimat.ru
ПОГОДА в Миколайках

Архив погоды в Миколайках (Польша)

Время
(UTC), дата
16 21.05
17 21.05
18 21.05
19 21.05
20 21.05
21 21.05
22 21.05
23 21.05
00 22.05
01 22.05
02 22.05
03 22.05
04 22.05
05 22.05
06 22.05
07 22.05
08 22.05
09 22.05
10 22.05
11 22.05
12 22.05
13 22.05
14 22.05
15 22.05
16 22.05
17 22.05
18 22.05
19 22.05
20 22.05
21 22.05
22 22.05
23 22.05
00 23.05
01 23.05
02 23.05
03 23.05
04 23.05
05 23.05
06 23.05
07 23.05
08 23.05
09 23.05
10 23.05
11 23.05
12 23.05
13 23.05
14 23.05
15 23.05
16 23.05
17 23.05
18 23.05
19 23.05
20 23.05
21 23.05
22 23.05
23 23.05
00 24.05
01 24.05
02 24.05
03 24.05
04 24.05
05 24.05
06 24.05
07 24.05
08 24.05
09 24.05
10 24.05
11 24.05
12 24.05
13 24.05
14 24.05
15 24.05
16 24.05
17 24.05
18 24.05
19 24.05
20 24.05
21 24.05
22 24.05
23 24.05
00 25.05
01 25.05
02 25.05
03 25.05
04 25.05
05 25.05
06 25.05
07 25.05
08 25.05
09 25.05
10 25.05
11 25.05
12 25.05
13 25.05
14 25.05
15 25.05
16 25.05
17 25.05
18 25.05
19 25.05
20 25.05
21 25.05
22 25.05
23 25.05
00 26.05
01 26.05
02 26.05
03 26.05
04 26.05
05 26.05
06 26.05
07 26.05
08 26.05
09 26.05
10 26.05
11 26.05
12 26.05
13 26.05
14 26.05
15 26.05
16 26.05
17 26.05
18 26.05
19 26.05
20 26.05
21 26.05
22 26.05
23 26.05
00 27.05
01 27.05
02 27.05
03 27.05
04 27.05
05 27.05
06 27.05
07 27.05
08 27.05
09 27.05
10 27.05
11 27.05
12 27.05
13 27.05
14 27.05
15 27.05
16 27.05
17 27.05
18 27.05
19 27.05
20 27.05
21 27.05
22 27.05
23 27.05
00 28.05
01 28.05
02 28.05
03 28.05
04 28.05
05 28.05
06 28.05
07 28.05
08 28.05
09 28.05
10 28.05
11 28.05
12 28.05
13 28.05
14 28.05
15 28.05
Ветер
(напр.,м/с)
Видим. Явления Облачность Т
(С)
Тd
(С)
f
(%)
Тe
(С)
Тes
(С)
Комфортность P
(гПа)
Po
(гПа)
Тmin
(С)
Tmax
(С)
R
(мм)
R24
(мм)
S
(см)
СВ 2 35 км 6/1 1000 м
[Cu hum Ci sp]
+23.8 +12.1 48 +26 +28 жарко 1014.1 999.2
СВ 2 40 км 4/0
[Ci fib]
+22.5 +12.7 54 +25 +26 комфорт 1014.1 999.2
СВ 2 45 км {гроза} ясно +20.9 +11.8 56 +24 +24 комфорт 1014.3 999.3 +16.1 +25.0
СВ 1 40 км ясно +19.1 +12.1 64 +21 +21 комфорт 1014.9 999.8
В 1 25 км ясно +18.1 +13.0 72 +19 +19 1015.0 999.8
СВ 2 35 км н/о +16.2 +12.6 79 +16 +16 1015.1 999.8
В 1 35 км н/о +15.5 +12.3 81 +16 +16 1015.6 1000.3
В 2 26 км н/о +15.2 +12.9 86 +15 +15 1015.4 1000.1
СВ 1 23 км н/о +14.0 +11.9 87 +14 +14 1015.2 999.8
СВ 1 28 км н/о +14.8 +12.8 88 +15 +15 1014.8 999.4
СВ 1 21 км н/о +13.6 +11.8 89 +14 +14 1014.6 999.2
С 1 22 км н/о +12.9 +11.5 91 +13 +13 1014.8 999.3
В 1 24 км н/о +14.7 +13.2 91 +15 +15 1014.9 999.5
СВ 2 25 км ясно +16.4 +13.7 84 +17 +19 1014.7 999.4
В 3 25 км 1/0
[Ci sp]
+17.6 +14.3 81 +18 +22 1014.7 999.5 +12.8 +20.9
В 2 35 км 1/1 600 м
[Cu hum Ci fib]
+19.8 +14.6 72 +22 +30 комфорт 1014.3 999.2
В 2 {7} 30 км 1/1 600 м
[Cu hum Ci sp]
+21.3 +14.5 65 +24 +35 комфорт 1013.9 998.9
В 2 {7} 30 км 3/1 1000 м
[Cu hum Ci sp]
+22.6 +14.2 59 +26 +38 жарко 1013.7 998.8
СВ 3 {7} 45 км 3/1 1000 м
[Cu hum Ci sp]
+23.5 +13.1 52 +26 +37 жарко 1013.1 998.2
В 3 35 км 3/3 1000 м
[Cu hum Ci sp]
+24.5 +13.7 51 +27 +36 жарко 1012.8 998.0
В 3-8 {8} 30 км 4/3 1000 м
[Cu hum Ci sp]
+25.2 +13.7 49 +27 +36 жарко 1012.5 997.7
В 3-8 {8} 28 км 4/3 1000 м
[Cu med, cong Ci sp]
+25.1 +13.3 48 +27 +34 жарко 1011.8 997.0
В 3 30 км 4/4 1500 м
[Cu med, cong]
+25.5 +13.0 46 +27 +32 жарко 1011.3 996.5
В 3 {9} 35 км 3/3 1500 м
[Cu med, cong Ci fib]
+25.5 +13.0 46 +27 +31 жарко 1011.3 996.5
В 3 35 км 3/3 1500 м
[Cu hum Ci fib]
+25.1 +12.7 46 +27 +29 жарко 1011.1 996.3
В 4-9 {9} 50 км 3/1 1500 м
[Cu hum Ci sp]
+23.7 +10.0 42 +25 +26 комфорт 1011.1 996.3
В 4 {9} 50 км 1/1 1500 м
[Sc diur, vesp Ci sp]
+22.8 +9.2 42 +24 +24 комфорт 1011.6 996.7 +17.6 +25.9
В 4 {8} 4600 м 1/1 1500 м
[Cu hum]
+21.5 +11.5 53 +24 +24 комфорт 1012.4 997.4
В 3 {8} 35 км 5/5 2000 м
[Sc]
+20.7 +11.9 57 +23 +23 комфорт 1012.6 997.6
В 3 {8} 45 км н/о +20.1 +12.6 62 +22 +22 комфорт 1012.7 997.7
В 3 40 км н/о +19.3 +13.2 68 +21 +21 комфорт 1013.1 998.0
В 3 35 км н/о +18.5 +13.6 73 +19 +19 1013.0 997.9
В 3 {8} 45 км н/о +18.5 +13.6 73 +19 +19 1013.0 997.9
В 4 40 км н/о +18.7 +13.1 70 +19 +19 1013.4 998.3
В 2 35 км н/о +18.1 +13.0 72 +19 +19 1013.8 998.6
В 4 35 км н/о +17.9 +13.0 73 +18 +18 1014.5 999.3
ЮВ 4 35 км морось н/о +18.1 +12.5 70 +18 +18 1015.1 999.9
В 3 24 км слаб. ливневой дождь 10/10 1000 м
[Cb cap]
+16.5 +13.6 83 +16 +16 1015.4 1000.1
В 3 26 км слаб. ливневой дождь 10/10 1000 м
[Cb cap]
+17.3 +13.4 78 +17 +17 1015.8 1000.6 +16.4 +22.8 0.2 0.2
В 2 18 км слаб. ливневой дождь 10/10 1000 м
[Cb cap]
+17.0 +13.1 78 +17 +17 1016.2 1000.9
СВ 1 26 км слаб. ливневой дождь 10/10 1000 м
[Cb cap]
+17.0 +13.9 82 +18 +18 1016.3 1001.0
В 1 30 км слаб. ливневой дождь 10/10 600 м
[Cb cap]
+17.9 +14.0 78 +19 +19 1016.4 1001.2
СВ 2 28 км в посл. час ливневой дождь 9/4 600 м
[Sc Ac As]
+19.7 +14.9 74 +22 +26 комфорт 1016.1 1001.0
В 3 24 км 8/5 600 м
[Cu med, cong Ac trans]
+23.8 +15.0 58 +27 +31 жарко 1015.7 1000.8
ЮВ 5 35 км {ливн. дождь} 9/6 600 м
[Cb calv Ac trans]
+24.6 +11.2 43 +26 +28 жарко 1015.2 1000.3 0.8
ЮВ 7 {13} 29 км 9/9 600 м
[Cb calv]
+25.3 +9.6 37 +26 +26 жарко 1015.0 1000.2
ЮВ 6 {11} 40 км 9/5 600 м
[Cb calv Ac trans]
+24.2 +10.5 42 +25 +26 комфорт 1015.0 1000.1
ЮВ 4 {13} 40 км 8/4 600 м
[Cu med, cong Ac trans]
+23.8 +11.5 46 +25 +27 комфорт 1015.3 1000.4
В 4 50 км 8/3 600 м
[Cu med, cong Ac trans Ci sp]
+23.6 +11.0 45 +25 +26 комфорт 1015.6 1000.7
З 3 40 км 8/1 600 м
[Cu med, cong Ac trans Ci sp]
+21.6 +13.5 60 +24 +25 комфорт 1016.4 1001.4
СЗ 2 {13} 40 км 8/0
[Ac trans Cs]
+19.9 +13.4 66 +22 +22 комфорт 1016.8 1001.7 +17.0 +25.7 0.8
С 2 35 км 8/0
[Ac trans Cs]
+18.4 +13.3 72 +19 +19 1017.6 1002.4
С 3 25 км 8/0
[Ac trans Cs]
+17.4 +13.1 76 +17 +17 1018.3 1003.0
С 2 35 км н/о +16.9 +13.2 79 +17 +17 1018.8 1003.5
С 2 30 км н/о +16.2 +13.3 83 +16 +16 1019.1 1003.8
СВ 1 27 км н/о +16.2 +13.3 83 +17 +17 1019.2 1003.9
В 3 40 км н/о +17.4 +12.9 75 +17 +17 1019.3 1004.0
В 2 35 км н/о +16.9 +12.6 76 +17 +17 1019.5 1004.2
В 2 40 км н/о +16.4 +12.2 76 +17 +17 1019.6 1004.3
В 4 35 км н/о +17.1 +12.2 73 +17 +17 1019.8 1004.5
В 4 40 км н/о +17.3 +12.6 74 +17 +17 1020.1 1004.8
В 4 35 км 6/6 1000 м
[Sc]
+18.0 +13.3 74 +18 +19 1020.6 1005.3
В 4 35 км 6/3 1000 м
[Sc Ac trans]
+19.3 +13.2 68 +21 +23 комфорт 1020.7 1005.5 +15.9 +19.9 0.8
В 3 30 км 5/0
[Ac trans]
+20.6 +14.0 66 +24 +29 комфорт 1020.9 1005.8
В 3 30 км 4/0
[Ci fib]
+22.2 +14.1 60 +25 +34 комфорт 1021.0 1005.9
В 5 29 км 3/0
[Ac trans Ci fib]
+23.4 +13.6 54 +27 +34 душно 1021.1 1006.1
В 5 27 км 4/0
[Ac trans]
+24.5 +13.1 49 +27 +33 жарко 1021.0 1006.1
В 4-9 {10} 30 км 4/0
[Ac trans]
+24.7 +13.6 50 +27 +35 жарко 1020.8 1005.9
В 3 {10} 25 км 4/0
[Ci sp]
+26.1 +15.2 51 +29 +40 жарко 1020.5 1005.6
В 4 30 км 4/3 1500 м
[Cu med, cong Ci sp]
+27.1 +11.6 38 +28 +34 жарко 1019.8 1005.0
В 5 35 км 6/6 1500 м
[Cu med, cong]
+27.0 +9.4 33 +27 +29 жарко 1019.4 1004.6
ЮВ 3 35 км 4/3 1500 м
[Cu med, cong Ac trans]
+26.0 +8.5 33 +26 +29 жарко 1019.2 1004.4
В 1 40 км 4/3 2000 м
[Cu med, cong Ac trans]
+24.7 +12.6 47 +27 +29 жарко 1019.4 1004.5
ЮВ 5 35 км гроза без осадков 9/9 1000 м
[Cb cap]
+25.2 +9.5 37 +26 +26 жарко 1019.5 1004.6
В 2 40 км в посл. час гроза 9/9 1000 м
[Cu Sc]
+23.4 +11.4 47 +26 +26 жарко 1020.0 1005.0 +19.3 +28.0
В 2 45 км 9/4 2000 м
[Sc Ac trans]
+21.5 +13.9 62 +24 +24 комфорт 1020.3 1005.2
ЮВ 3 35 км 8/0
[Ac trans]
+22.0 +11.7 52 +24 +24 комфорт 1020.8 1005.7
В 5 45 км н/о +21.2 +9.4 47 +23 +23 комфорт 1021.4 1006.3
ЮВ 5 50 км н/о +19.8 +11.3 58 +21 +21 комфорт 1021.7 1006.5
ЮВ 3 45 км н/о +18.6 +11.4 63 +19 +19 1021.9 1006.6
ЮВ 4 45 км н/о +18.1 +11.2 64 +18 +18 1021.5 1006.2
ЮВ 3 50 км н/о +17.9 +11.7 67 +18 +18 1021.3 1006.0
ЮВ 3 40 км н/о +18.3 +10.6 61 +19 +19 1021.1 1005.8
ЮВ 3 50 км н/о +18.0 +11.3 65 +18 +18 1021.4 1006.1
В 4 40 км н/о +18.3 +11.6 65 +18 +18 1021.7 1006.4
ЮВ 5 45 км 9/0
[Ac As]
+18.3 +12.1 67 +18 +19 1021.9 1006.6
В 4 35 км слаб. дождь 10/0
[Ac As]
+18.4 +12.4 68 +19 +20 1022.1 1006.8 +17.8 +23.4 0.0 0.0
В 3 35 км в посл. час дождь 9/0
[Ac As Ci sp]
+19.8 +13.3 66 +22 +25 комфорт 1022.1 1006.9
В 3 30 км 8/0
[Ac trans Cs]
+21.1 +13.3 61 +23 +31 комфорт 1021.6 1006.5
В 3 35 км {дождь} 9/0
[Ac trans Cs]
+21.1 +13.5 62 +24 +31 комфорт 1021.7 1006.6
В 2 30 км 9/0
[Ac trans Cs]
+21.8 +13.9 61 +25 +34 комфорт 1021.7 1006.6
СВ 2 30 км 8/1 600 м
[Cu hum Ac trans Cs]
+23.6 +15.6 61 +27 +35 жарко 1021.8 1006.8
В 3 30 км {дождь} 8/1 1000 м
[Cu hum Ac trans Cs]
+23.5 +14.8 58 +26 +33 жарко 1021.4 1006.4 0.0
В 3 30 км 6/3 1000 м
[Cu med, cong Cs]
+24.8 +15.1 55 +28 +34 жарко 1020.8 1005.9
В 5 35 км 6/3 1000 м
[Cu med, cong Ac trans Ci sp]
+24.2 +12.5 48 +26 +29 жарко 1020.6 1005.6
В 2 40 км гроза без осадков 8/8 1500 м
[Cb cap]
+23.4 +14.1 56 +27 +28 душно 1020.4 1005.4
ЮВ 1 {12} 8000 м гроза, ливневой дождь 10/10 1000 м
[Cb cap]
+16.8 +14.8 88 +18 +18 1021.2 1005.9
ЮЗ 4 {9} 40 км слаб. ливневой дождь, в посл. час гроза 9/9 1500 м
[Cb cap]
+16.7 +13.4 81 +16 +16 1020.9 1005.6
З 1 {12} 45 км в посл. час ливневой дождь {гроза} 9/9 1500 м
[Cb cap]
+16.3 +13.6 84 +17 +17 1020.8 1005.4 +16.2 +25.0 12
В 1 35 км 10/3 1500 м
[Cb calv Ac As]
+16.2 +14.4 89 +17 +17 1021.2 1005.8
В 2 45 км 10/0
[Ac As]
+17.4 +14.7 84 +18 +18 1021.4 1006.1
С 1 25 км н/о +15.8 +14.0 89 +16 +16 1021.6 1006.2
СЗ 2 27 км н/о +15.9 +14.6 92 +16 +16 1021.8 1006.4
С 3 26 км в посл. час морось н/о +15.9 +14.3 90 +15 +15 1022.1 1006.7
СЗ 2 30 км н/о +15.9 +14.1 89 +16 +16 1022.3 1006.9 0.0
СВ 2 20 км н/о +15.3 +14.0 92 +15 +15 1022.0 1006.6
СВ 1 30 км н/о +15.2 +13.0 87 +16 +16 1021.8 1006.4
В 4 29 км н/о +16.1 +13.4 84 +15 +15 1021.8 1006.4
В 3 28 км н/о +16.8 +13.5 81 +17 +17 1022.2 1006.8
ЮВ 4 24 км гроза, ливневой дождь 9/9 1000 м
[Cb cap]
+16.2 +12.9 81 +15 +16 1022.6 1007.2
СВ 2 20 км гроза, ливневой дождь 9/9 1000 м
[Cb cap]
+15.8 +14.3 91 +16 +16 1023.0 1007.6 +14.9 +18.0 5 16.9
В 2 29 км в посл. час гроза 8/6 1000 м
[Cb cap Ci sp]
+19.5 +14.1 71 +22 +25 комфорт 1023.0 1007.8
В 2 29 км 6/0
[Ac trans Ci fib]
+20.7 +12.9 61 +24 +33 комфорт 1022.9 1007.7
В 3 30 км {гроза, ливн. дождь} 1/0
[Ci fib]
+22.0 +13.6 59 +25 +37 комфорт 1022.7 1007.6
В 2 35 км 1/0
[Ci fib]
+23.8 +14.8 57 +27 +42 жарко 1022.5 1007.5
В 3 27 км 3/0
[Ac trans Ci fib]
+24.9 +12.8 47 +27 +39 жарко 1022.2 1007.3
В 3 35 км {гроза, ливн. дождь} 8/6 1500 м
[Cu med, cong Ci fib]
+25.4 +12.3 44 +27 +31 жарко 1022.0 1007.1 0.6
Ю 1 35 км гроза без осадков {ливн. дождь} 8/6 1500 м
[Cb cap Ci fib]
+25.2 +14.9 53 +28 +33 жарко 1021.7 1006.8
СЗ 2 40 км гроза без осадков 8/8 1500 м
[Cb cap]
+25.0 +11.2 42 +26 +28 жарко 1021.5 1006.6
СЗ 1 35 км в посл. час гроза 8/8 1500 м
[Cu med, cong]
+24.0 +11.3 45 +25 +27 комфорт 1021.4 1006.4
В 1 40 км 5/3 1000 м
[Cu Sc Ci fib]
+24.5 +11.8 45 +26 +29 жарко 1021.5 1006.5
В 4 35 км 3/3 1000 м
[Cu Sc]
+23.5 +10.9 45 +25 +25 комфорт 1021.8 1006.8
В 4 40 км {гроза, ливн. дождь} 4/0
[Ac trans Ci sp]
+22.2 +10.0 46 +24 +24 комфорт 1022.3 1007.2 +15.8 +26.4 1
Ю 2 40 км 3/0
[Ci sp]
+21.0 +10.8 52 +24 +24 комфорт 1023.1 1007.9
В 1 30 км 3/0
[Ci sp]
+18.1 +10.2 60 +19 +19 1023.5 1008.2
ЮВ 1 40 км н/о +16.8 +11.3 70 +18 +18 1023.6 1008.2
В 2 30 км н/о +15.7 +13.0 84 +16 +16 1023.9 1008.5
В 2 40 км н/о +16.2 +11.4 73 +16 +16 1023.8 1008.4
ЮВ 2 50 км н/о +16.0 +10.1 68 +16 +16 1023.5 1008.1
ЮВ 1 40 км н/о +14.9 +9.3 69 +15 +15 1023.6 1008.1
ЮВ 1 35 км н/о +13.7 +10.1 79 +14 +14 1023.6 1008.1
В 3 45 км н/о +13.1 +9.9 81 +12 +12 1023.5 1007.9
В 3 35 км н/о +16.1 +11.3 73 +16 +16 1023.4 1008.0
ЮВ 3 30 км 1/0
[Ci fib]
+18.1 +11.2 64 +18 +21 1023.4 1008.1
В 4 28 км 1/0
[Ci fib]
+19.3 +11.1 59 +20 +24 1023.4 1008.2 +12.9 +22.3 1.0
В 3 28 км 1/0
[Ci fib]
+21.1 +12.2 57 +23 +30 комфорт 1023.3 1008.1
В 3 35 км 1/0
[Ci fib]
+23.7 +11.4 46 +25 +35 комфорт 1022.9 1007.9
ЮВ 3 27 км 1/0
[Ci fib]
+25.5 +6.2 29 +25 +37 комфорт 1022.5 1007.6
ЮВ 5 30 км 1/0
[Ci fib]
+26.1 +4.5 25 +25 +33 комфорт 1022.1 1007.2
В 5 35 км 1/0
[Ci fib]
+26.1 +5.6 27 +25 +34 комфорт 1021.8 1006.9
В 5 {9} 30 км 1/0
[Ci fib]
+26.7 +5.6 26 +26 +34 жарко 1021.3 1006.5
В 5 30 км 1/0
[Ci fib]
+26.9 +6.3 27 +26 +33 жарко 1020.7 1005.9
В 5 40 км 1/0
[Ci fib]
+27.0 +6.9 28 +27 +31 жарко 1020.3 1005.5
В 5 40 км 1/1 1500 м
[Cu hum Ci fib]
+26.8 +6.2 27 +26 +29 жарко 1019.8 1005.0
В 4 40 км ясно +25.9 +8.8 34 +26 +28 жарко 1019.5 1004.6
В 5 35 км 1/0
[Ci fib]
+24.8 +7.4 33 +25 +26 комфорт 1019.2 1004.3
В 4 50 км 1/0
[Ci fib]
+23.2 +7.7 37 +24 +24 комфорт 1019.2 1004.2 +19.2 +27.2
ЮВ 2 50 км 1/0
[Ci fib]
+21.0 +10.5 51 +24 +24 комфорт 1019.6 1004.5
В 2 50 км ясно +19.0 +12.3 65 +21 +21 комфорт 1019.9 1004.7
В 2 50 км н/о +17.7 +12.4 71 +18 +18 1020.2 1004.9
В 3 45 км н/о +17.7 +11.3 66 +18 +18 1020.2 1004.9
ЮВ 3 30 км н/о +18.0 +9.9 59 +18 +18 1020.1 1004.8
ЮВ 3 50 км н/о +17.5 +9.9 61 +18 +18 1020.1 1004.8
ЮВ 1 50 км н/о +15.9 +8.6 62 +17 +17 1019.9 1004.5
В 2 50 км н/о +15.3 +10.3 72 +15 +15 1019.6 1004.2
В 3 40 км н/о +15.4 +9.7 69 +15 +15 1019.5 1004.1
В 3 45 км н/о +16.3 +10.6 69 +16 +16 1019.4 1004.1
В 3 35 км 5/0
[Ci fib]
+17.9 +11.0 64 +18 +20 1019.5 1004.2
В 2 40 км 4/0
[Ci fib]
+19.6 +11.4 59 +21 +27 комфорт 1019.4 1004.2 +15.2 +23.2
В 2 30 км 3/0
[Ci fib]
+20.9 +10.4 51 +23 +32 комфорт 1019.2 1004.1
В 2 29 км 3/0
[Ci fib]
+23.6 +11.3 46 +25 +36 комфорт 1018.9 1003.9
В 3 40 км 4/3 1500 м
[Cu hum Ci fib]
+24.5 +8.8 37 +25 +33 комфорт 1018.4 1003.5
В 4 30 км 4/3 2000 м
[Cu med, cong Ci fib]
+25.2 +7.8 33 +25 +33 комфорт 1018.0 1003.1
В 6 30 км 4/3 2000 м
[Cu med, cong Ci fib]
+26.7 +9.1 33 +27 +31 жарко 1017.3 1002.5
ЮВ 5 {9} 30 км 5/3 2000 м
[Cu med, cong Ci fib]
+27.2 +6.6 27 +27 +32 жарко 1016.7 1002.0
Ю 5 40 км 5/4 2000 м
[Cu med, cong Ci fib]
+26.8 +6.8 28 +26 +30 жарко 1016.1 1001.3
ЮВ 5 35 км 5/5 2000 м
[Cu med, cong]
+27.6 +6.9 27 +27 +29 жарко 1015.6 1000.9
ЮВ 2 45 км 4/4 2000 м
[Cu med, cong]
+26.7 +7.2 29 +26 +30 жарко 1015.3 1000.5
Местоположение метеостанции Миколайки (Польша): широта 53.78 долгота 21.58 высота над уровнем моря 132 м.
В архиве по умолчанию представлена погода в Миколайках за последнюю неделю. Архивные данные за месяц целиком и за предыдущие месяцы, начиная с января 2011 года, Вы можете получить, выбрав интересующий диапазон дат из раскрывающегося списка и нажав кнопку "Найти!".
*Определитесь, кто Вы:
Внимание! Время в таблицах - всемирное. Для получения местного времени необходимо прибавить поправку, которая равна 1 ч.
Некоторые строки с данными для отдельных станций могут быть выделены курсивом. Это означает, что фактические данные отсутствуют по различным причинам, а приведенные значения являются расчетными модельными данными для данного пункта наблюдений.
Смотрите также архив погоды в соседних городах и на ближайших метеорологических станциях:
Партнеры нашего сайта:      
Пояснения к столбцам:
  • Ветер - указаны скорость ветра в м/с - средняя за 10 мин, порывы в срок и между сроками (в фигурных скобках) и направление, откуда дует ветер: С - северный,
  • СВ - северо-восточный, В - восточный, ЮВ - юго-восточный, Ю - южный, ЮЗ - юго-западный, З - западный, СЗ - северо-западный.
  • Видимость - горизонтальная дальность видимости в метрах или километрах. При видимости от 1 до 10 км при отсутствии осадков обычно наблюдается дымка, при ухудшении видимости до 1 км и менее - туман. В сухую погоду видимость может ухудшаться дымом, пылью или мглою.
  • Явления - указаны атмосферные явления, наблюдавшиеся в срок или в последний час перед сроком; фигурными скобками обозначены явления, наблюдавшиеся между сроками (за 1-3 часа до срока); квадратными скобками обозначены град или гололедные отложения с указанием их диаметра в мм.
  • Облачность - указаны через наклонную черту общая и нижняя облачность в баллах и высота нижней границы облаков в метрах; квадратными скобками обозначены формы облаков: Ci - перистые, Cs - перисто-слоистые, Cc - перисто-кучевые, Ac - высококучевые, As - высокослоистые, Sc - слоисто-кучевые, Ns - слоисто-дождевые, Cu - кучевые, Cb - кучево-дождевые. Подробнее классификацию облаков см. в Атласе облаков (PDF).
  • T - Температура воздуха - температура, измеренная на высоте 2 м над землей.
  • Td - Температура точки росы - температура, при понижении до которой содержащийся в воздухе водяной пар достигнет насыщения.
  • f - Относительная влажность воздуха - влажноcть воздуха, измеренная на высоте 2 м над землей.
  • Te - Эффективная температура - температура, которую ощущает одетый по сезону человек в тени. Характеристика душности погоды. При расчете учитывается влияние влажности воздуха и скорости ветра на теплоощущения человека.
  • Tes - Эффективная температура на солнце - температура, которую ощущает человек, с поправкой на солнечный нагрев. Характеристика знойности погоды. Зависит от высоты солнца над горизонтом, облачности и скорости ветра. Ночью, в пасмурную погоду, а также при ветре 12 м/с и более поправка равна нулю.
  • P - Атмосферное давление - приведенное к уровню моря атмосферное давление.
  • Po - Атмосферное давление - измеренное на уровне метеостанции атмосферное давление.
  • Tmin - Минимальная температура - минимум температуры воздуха на высоте 2 м над землей.
  • Tmax - Максимальная температура - максимум температуры воздуха на высоте 2 м над землей.
  • R - Количество осадков - Количество выпавших осадков за период времени, мм. При наведении курсора мыши на число - период времени, за который выпало указанное количество осадков.
  • R24 - Количество осадков - Количество выпавших осадков за 24 часа, мм.
  • S - Снежный покров - Высота снежного покрова, см. При наведении курсора мыши на число - состояние снежного покрова и степень покрытия местности в баллах.